Lake Charles, LA

5:36 PM CST on December 04, 2016 (GMT -0600)
Lake Charles Regional

Weather History for KLCH - October, 2011

Change the Weather History Date:

Wednesday, October 12, 2011

  Actual Average Record
Temperature  
Mean Temperature 75 °F 71 °F  
Max Temperature 86 °F 82 °F 91 °F (1929)
Min Temperature 64 °F 61 °F 41 °F (1906)
Degree Days  
Heating Degree Days 0 1  
Month to date heating degree days 1 3  
Since 1 July heating degree days 1 4  
Cooling Degree Days 10 7  
Month to date cooling degree days 82 99  
Year to date cooling degree days 3088 2639  
Growing Degree Days 24 (Base 50)    
Moisture  
Dew Point 67 °F    
Average Humidity 78    
Maximum Humidity 100    
Minimum Humidity 55    
Precipitation  
Precipitation 0.00 in 0.15 in 1.60 in (1901)
Month to date precipitation 0.05 1.63  
Year to date precipitation 31.02 45.11  
Snow  
Snow 0.00 in 0.00 in 0.00 in ()
Month to date snowfall 0.0 0.0  
Since 1 July snowfall 0.0 0.0  
Since 1 September snowfall 0.0 0.0  
Snow Depth 0.00 in    
Sea Level Pressure  
Sea Level Pressure 29.83 in    
Wind  
Wind Speed 4 mph (SSW)    
Max Wind Speed 15 mph    
Max Gust Speed 20 mph    
Visibility 5 miles    
Events Fog , Rain , Thunderstorm    
T = Trace of Precipitation, MM = Missing Value Source: NWS Daily Summary

Daily Weather History Graph

Daily Weather History Graph

Search for Another Location

Airport or City:

Trip Planner

Search our weather history database for the weather conditions in past years. The results will help you decide how hot, cold, wet, or windy it might be!

Date:

Astronomy

Oct. 12, 2011 Rise Set
Actual Time 7:12 AM CDT 6:45 PM CDT
Civil Twilight 6:48 AM CDT 7:09 PM CDT
Nautical Twilight 6:20 AM CDT 7:37 PM CDT
Astronomical Twilight 5:53 AM CDT 8:05 PM CDT
Moon 6:56 PM CDT (10/12) 7:41 AM CDT (10/12)
Length of Visible Light 12h 20m
Length of Day
11h 32m
Full, 100% of the Moon is Illuminated
Oct 12
Full
Oct 19
Last Quarter
Oct 26
New
Nov 2
First Quarter
Nov 10
Full

Hourly Weather History & Observations

Time (CDT) Temp. Heat Index Dew Point Humidity Pressure Visibility Wind Dir Wind Speed Gust Speed Precip Events Conditions
12:53 AM 68.0 °F - 66.0 °F 93% 29.87 in 6.0 mi Calm Calm - N/A   Clear
1:53 AM 66.9 °F - 64.9 °F 93% 29.86 in 6.0 mi Calm Calm - N/A   Clear
2:53 AM 66.0 °F - 64.0 °F 93% 29.85 in 6.0 mi Calm Calm - N/A   Clear
3:16 AM 64.4 °F - 64.4 °F 100% 29.82 in 2.0 mi Calm Calm - N/A   Clear
3:32 AM 66.2 °F - 64.4 °F 94% 29.82 in 3.0 mi Calm Calm - N/A   Partly Cloudy
3:50 AM 64.4 °F - 64.4 °F 100% 29.82 in 1.5 mi ESE 4.6 mph - N/A   Scattered Clouds
3:53 AM 66.0 °F - 64.0 °F 93% 29.85 in 0.5 mi Calm Calm - N/A Fog Fog
3:59 AM 66.2 °F - 64.4 °F 94% 29.82 in 0.2 mi Calm Calm - N/A Fog Fog
4:06 AM 66.2 °F - 64.4 °F 94% 29.82 in 0.8 mi SE 3.5 mph - N/A   Mist
4:14 AM 64.4 °F - 64.4 °F 100% 29.82 in 1.2 mi Calm Calm - N/A   Mostly Cloudy
4:23 AM 64.4 °F - 64.4 °F 100% 29.82 in 3.0 mi Calm Calm - N/A   Mostly Cloudy
4:32 AM 64.4 °F - 64.4 °F 100% 29.82 in 2.0 mi Calm Calm - N/A   Mostly Cloudy
4:47 AM 64.4 °F - 64.4 °F 100% 29.82 in 0.8 mi Calm Calm - N/A   Mist
4:53 AM 64.9 °F - 64.9 °F 100% 29.84 in 0.2 mi Calm Calm - N/A Fog Fog
5:53 AM 64.0 °F - 64.0 °F 100% 29.85 in 0.2 mi SE 3.5 mph - N/A Fog Fog
6:53 AM 64.9 °F - 64.0 °F 97% 29.86 in 0.5 mi Calm Calm - N/A Fog Fog
7:19 AM 64.4 °F - 62.6 °F 94% 29.83 in 1.0 mi Calm Calm - N/A   Overcast
7:33 AM 64.4 °F - 64.4 °F 100% 29.84 in 0.2 mi Calm Calm - N/A Fog Fog
7:53 AM 64.9 °F - 64.9 °F 100% 29.87 in 0.2 mi Calm Calm - N/A Fog Fog
8:18 AM 66.2 °F - 66.2 °F 100% 29.85 in 1.0 mi Calm Calm - N/A   Mist
8:27 AM 68.0 °F - 66.2 °F 94% 29.85 in 0.2 mi Calm Calm - N/A Fog Fog
8:42 AM 69.8 °F - 68.0 °F 94% 29.85 in 0.2 mi Calm Calm - N/A Fog Fog
8:53 AM 70.0 °F - 69.1 °F 97% 29.88 in 0.2 mi SE 3.5 mph - N/A Fog Fog
9:00 AM 71.6 °F - 69.8 °F 94% 29.85 in 3.0 mi SE 3.5 mph - N/A   Clear
9:53 AM 78.1 °F - 71.1 °F 79% 29.88 in 10.0 mi SE 3.5 mph - N/A   Clear
10:34 AM 80.6 °F 83.9 °F 69.8 °F 70% 29.86 in 10.0 mi SSW 5.8 mph - N/A   Mostly Cloudy
10:46 AM 80.6 °F 83.2 °F 68.0 °F 65% 29.85 in 10.0 mi SSW 10.4 mph - N/A   Scattered Clouds
10:53 AM 81.0 °F 83.3 °F 66.9 °F 62% 29.88 in 10.0 mi SSW 8.1 mph - N/A   Scattered Clouds
11:53 AM 82.0 °F 84.9 °F 68.0 °F 62% 29.86 in 10.0 mi WSW 8.1 mph - N/A   Scattered Clouds
12:53 PM 84.9 °F 87.6 °F 66.9 °F 55% 29.85 in 10.0 mi SSW 5.8 mph - N/A   Clear
1:53 PM 84.9 °F 87.1 °F 66.0 °F 53% 29.83 in 10.0 mi SSW 8.1 mph - N/A   Clear
2:53 PM 84.0 °F 86.3 °F 66.0 °F 55% 29.81 in 10.0 mi South 9.2 mph - N/A   Clear
3:53 PM 84.0 °F 86.3 °F 66.0 °F 55% 29.80 in 10.0 mi South 11.5 mph 19.6 mph N/A   Clear
4:53 PM 82.9 °F 85.4 °F 66.9 °F 58% 29.79 in 10.0 mi SSW 10.4 mph - N/A   Clear
5:53 PM 80.1 °F 82.7 °F 68.0 °F 67% 29.79 in 10.0 mi SSW 9.2 mph 16.1 mph N/A   Clear
6:53 PM 77.0 °F - 69.1 °F 76% 29.80 in 10.0 mi SSW 5.8 mph - N/A   Clear
7:53 PM 75.9 °F - 69.1 °F 79% 29.80 in 10.0 mi SW 4.6 mph - N/A   Clear
8:53 PM 73.9 °F - 69.1 °F 85% 29.83 in 10.0 mi NW 4.6 mph - N/A   Clear
9:02 PM 75.2 °F - 69.8 °F 83% 29.81 in 10.0 mi West 3.5 mph - N/A Thunderstorm Partly Cloudy
9:27 PM 75.2 °F - 71.6 °F 89% 29.83 in 4.0 mi WNW 5.8 mph - 0.00 in Rain , Thunderstorm Heavy Thunderstorms and Rain
9:31 PM 73.4 °F - 71.6 °F 94% 29.83 in 1.8 mi West 9.2 mph - 0.03 in Rain , Thunderstorm Heavy Thunderstorms and Rain
9:40 PM 71.6 °F - 66.2 °F 83% 29.81 in 2.0 mi Variable 5.8 mph 17.3 mph 0.15 in Rain , Thunderstorm Light Thunderstorms and Rain
9:44 PM 71.6 °F - 64.4 °F 78% 29.81 in 7.0 mi West 4.6 mph 17.3 mph 0.16 in Rain Light Rain
9:53 PM 71.6 °F - 66.2 °F 83% 29.81 in 10.0 mi West 5.8 mph - N/A   Mostly Cloudy
10:53 PM 72.0 °F - 69.1 °F 91% 29.83 in 10.0 mi West 3.5 mph - N/A   Clear
11:53 PM 70.0 °F - 69.1 °F 97% 29.84 in 6.0 mi Calm Calm - N/A   Clear